Location: Stara Lesna
(49.1528°N, 20.2911°E)
Time: 18:50:06
(UTC+02:00)

Lacrosse 5 - Pass Details

Date: 13 July 2020
Orbit: 717 x 720 km, 57.0° (Epoch: 09 August)

Event Time Altitude Azimuth Distance (km) Brightness Sun altitude
Exits shadow 01:23:30 34° 213° (SSW) 1,171 2.5 -18.5°
Maximum altitude 01:25:38 68° 140° (SE) 772 1.8 -18.5°
Drops below altitude 10° 01:30:41 10° 58° (ENE) 2,206 5.0 -18.3°
Sets 01:33:04 0° 56° (NE) 3,129 5.9 -18.2°
